Other Public Products
Issued by NWS Grand Forks, ND

Home | Current Version | Previous Version | Text Only | Print | Product List | Glossary Off
Versions: 1 2 3 4 5 6 7 8 9 10 11 12 13 14 15 16 17 18 19 20 21 22 23 24 25 26 27 28 29 30 31 32 33 34 35 36 37 38 39 40 41 42 43 44 45 46 47 48 49 50

000
FPUS83 KFGF 032031
OPUFGF
PRAIRIE TO PINES WEATHER ROUNDUP
NATIONAL WEATHER SERVICE EASTERN NORTH DAKOTA/GRAND FORKS ND
300 PM CDT THU SEP 03 2015

 **SATELLITE DATA USED TO AUGMENT SKY COVER AT AUTOMATED STATIONS**
 *****  WEATHER ACROSS EASTERN NORTH DAKOTA  *****

CITY           SKY/WX    TMP DP  RH WIND       PRES   REMARKS
GRAND FORKS    MOSUNNY   91  71  51 S21G35    29.70F HX  97
GRAND FORKS AF SUNNY     91  72  53 S23G31    29.70F HX  98
GRAND CITY NWS   N/A     90 N/A N/A S22         N/A
BUXTON         NOT AVBL
DEVILS LAKE    SUNNY     90  70  51 SE17G24   29.67F HX  95
FARGO          SUNNY     92  71  50 S18G29    29.75F HX  98
WAHPETON ARPT  CLEAR     90  66  45 S17G23    29.78F HX  92
$$

 *****  WEATHER ACROSS CENTRAL AND WESTERN NORTH DAKOTA  *****

CITY           SKY/WX    TMP DP  RH WIND       PRES   REMARKS
JAMESTOWN      SUNNY     94  67  41 S16G28    29.71F HX  97
BISMARCK       PTSUNNY   97  62  31 S15       29.66F HX  98
MINOT          FAIR      92  62  36 SW12      29.65R HX  92
MINOT AFB      SUNNY     93  66  40 SW10      29.64R HX  95
GARRISON         N/A     95  59  30 SW10G20   29.66R HX  94
WILLISTON      MOSUNNY   87  50  27 N21       29.72R
DICKINSON      MOSUNNY   89  53  29 N10G20    29.71S
HETTINGER      SUNNY     92  45  19 W12       29.74F
$$

 *****  OTHER OBSERVATIONS NORTHEAST NORTH DAKOTA  *****

CITY           SKY/WX    TMP DP  RH WIND       PRES   REMARKS
WALHALLA       FAIR      86  73  66 MISG      29.68F HX  93
LANGDON        FAIR      91  70  49 S18G29    29.71F HX  97
CAVALIER       FAIR      90  72  55 S16G26    29.69F HX  96
GRAFTON        FAIR      91  73  55 S20G28    29.71S HX 100
CANDO          FAIR      90  72  55 SE17G25   29.67F HX  96
FORT TOTTEN      N/A     91  72  53 S13       29.95S HX  98
ROLLA            N/A     88  68  51 S15G21    29.68F HX  91
RUGBY          FAIR      95  66  38 S18G24    29.62F HX  98
 ***** THE ABOVE OBSERVATIONS ARE NON NWS ARE NOT QUALITY
        CONTROLLED AND MAY MIS-REPORT RAIN FOR SNOW...
$$

 *****  OTHER OBSERVATIONS SOUTHEAST NORTH DAKOTA *****

CITY           SKY/WX    TMP DP  RH WIND       PRES   REMARKS
COOPERSTOWN    NOT AVBL
VALLEY CITY    FAIR      91  75  59 S18       29.73F HX 102
OAKES            N/A     95  90  84 S13G20    29.74F HX 139
GWINNER          N/A     97 N/A N/A S12G22    29.75F
SHEYENNE NWR     N/A     89  72  56 SE14      29.95S HX  96
BUFFALO        NOT AVBL
WYNDMERE         N/A     91  72  52 SE14        N/A  HX  98
 ***** THE ABOVE OBSERVATIONS ARE NON NWS ARE NOT QUALITY
       CONTROLLED AND MAY MIS-REPORT RAIN FOR SNOW...
$$

  *****  WEATHER ACROSS NORTHERN MINNESOTA  *****

CITY           SKY/WX    TMP DP  RH WIND       PRES   REMARKS
FLAG ISLAND    SUNNY     75  66  73 S12       29.82F
WARROAD        SUNNY     84  72  65 SE13G23   29.81F
ROSEAU         SUNNY     88  73  62 SE16      29.79S HX  96
HALLOCK        SUNNY     93  70  46 S20G29    29.71S HX  99
THF RVR FALLS  SUNNY     90  72  55 SE18      29.77F HX  96
HALSTAD        NOT AVBL
FOSSTON        SUNNY     90  66  45 S17       29.81F HX  92
BAUDETTE       SUNNY     85  64  49 SE13G23   29.85F
WASKISH        SUNNY     84  68  58 SE13      29.86F
CROOKSTON      SUNNY     90  70  51 S23G29    29.76S HX  95
$$
  *****  WEATHER ACROSS CENTRAL AND WEST MINNESOTA  *****

CITY           SKY/WX    TMP DP  RH WIND       PRES   REMARKS
BEMIDJI        SUNNY     83  69  62 SE13G22   29.87S
PARK RAPIDS    MOSUNNY   86  69  56 SE16      29.87F HX  90
WADENA         SUNNY     84  72  65 SE13      29.86F
DETROIT LAKES  SUNNY     86  70  58 SE16G22   29.84F HX  90
MOORHEAD       SUNNY     90  72  55 SE20G26   29.77S HX  96
FERGUS FALLS   SUNNY     86  72  62 S20       29.80F HX  92
ELBOW LAKE     FAIR      85  74  68 SE14G20   29.82F HAZE    HX  93
MORRIS MN      SUNNY     90  73  58 SE15      29.81F HX  98
STAPLES        SUNNY     84  70  61 SE8       29.87F
WHEATON        NOT AVBL
$$
  *****  WEATHER ELSEWHERE ACROSS MINNESOTA  *****

CITY           SKY/WX    TMP DP  RH WIND       PRES   REMARKS
DULUTH         MOSUNNY   71  65  81 E9        29.98S
INTRNTL FALLS  SUNNY     83  64  52 SE12      29.91S
ELY            SUNNY     81  57  44 SE10      29.97F
CLOQUET        SUNNY     72  63  73 E7        29.97S
BRAINERD       MOSUNNY   81  68  64 SE8       29.90F
HIBBING        SUNNY     78  63  59 SE10      29.96S
ALEXANDRIA     SUNNY     84  73  69 SE14      29.88F HX  90
SAINT CLOUD    MOSUNNY   84  73  69 SE13      29.88F HX  90
MINNEAPOLIS    MOSUNNY   83  72  69 E14       29.88F
$$

  *****  WEATHER ACROSS SOUTH DAKOTA  *****

CITY           SKY/WX    TMP DP  RH WIND       PRES   REMARKS
SIOUX FALLS    MOSUNNY   86  71  60 SE15G22   29.81F HX  91
BROOKINGS      SUNNY     88  72  58 S16       29.83F HX  94
WATERTOWN      SUNNY     90  70  51 SE14      29.81F HX  95
HURON          SUNNY     91  70  49 SE13      29.75F HX  96
SISSETON         N/A     91  72  53 S12       29.77F HX  98
ABERDEEN       SUNNY     92  72  51 S13       29.74F HX  99
MITCHELL       SUNNY     91  72  53 SE14G21   29.76F HX  98
PIERRE         MOSUNNY  100  57  23 SE21G29   29.69F HX  99
MOBRIDGE       MOSUNNY   98  62  30 S17G28    29.67F HX  99
RAPID CITY     MOSUNNY   96  49  20 S13       29.75F HX  93
$$

  *****  SOME WEATHER IN NEARBY STATES *****

CITY           SKY/WX    TMP DP  RH WIND       PRES   REMARKS
GLASGOW MT     MOSUNNY   79  40  24 NE15G22   29.79F
GREAT FALLS MT CLOUDY    61  40  45 N15G22    29.92S
CHEYENNE WY    LGT RAIN  76  47  35 S16G32    30.06R
SCOTTSBLUFF NE CLOUDY    88  49  25 S6        29.88F
OMAHA NE       MOSUNNY   92  70  48 S17G25    29.82F HX  97
DES MOINES IA  MOSUNNY   90  71  53 S12       29.87F HX  96
DAVENPORT IA   SUNNY     89  71  55 SW10      29.91F HX  95
CHICAGO IL     MOSUNNY   89  68  49 SW13G21   29.90F HX  93
EAU CLAIRE WI  SUNNY     81  67  62 SE7       29.92F
LA CROSSE WI   SUNNY     88  73  61 E8        29.89F HX  95
$$

  *****  SOME NATIONAL WEATHER *****

CITY           SKY/WX    TMP DP  RH WIND       PRES   REMARKS
LA GUARDIA NY  PTSUNNY   91  61  36 NE6       29.82F HX  91
RALEIGH NC     PTSUNNY   89  69  51 W3        29.91F HX  93
ATLANTA GA     TSTM      73  63  68 W12       29.99
NEW ORLEANS LA CLOUDY    84  73  69 SE9       29.96F HX  90
OKLAHOMA CITY  MOSUNNY   92  64  39 S15G23    29.93F HX  93
ALBUQUERQUE NM PTSUNNY   82  46  28 CALM      30.11F
SALT LAKE CITY PTSUNNY   87  39  18 S25G31    29.86F
LOS ANGELES CA MOSUNNY   74  58  57 W14       29.90F
BOISE ID       PTSUNNY   63  41  44 NW18      29.92F
SEATTLE WA     PTSUNNY   60  48  64 SW10      30.01F
$$

*** WEATHER ACROSS MANITOBA...SASKATCHEWAN AND ONTARIO ***
                ***ONTARIO***

CITY           SKY/WX    TMP DP  RH WIND       PRES   REMARKS
GERALDTON      MOSUNNY   82  52  34 S10       30.01F
THUNDER BAY    MOSUNNY   77  61  57 E9        30.01F
SIOUX LOOKOUT  MOSUNNY   82  57  42 SE13G20   29.94F
TORONTO        CLOUDY    84  70  61 E15       29.90F THUNDER
BIG TROUT LK   MOSUNNY   79  66  65 SW3       29.85F
PICKLE LAKE    MOSUNNY   86  52  30 SW14G22   29.94F
DRYDEN         SUNNY     84  55  37 S14G21    29.92F
KENORA         MOSUNNY   82  63  51 S14       29.87F
$$
                *** MANITOBA***

CITY           SKY/WX    TMP DP  RH WIND       PRES   REMARKS
BRANDON        PTSUNNY   82  72  69 SE10G18   29.67F
DAUPHIN        CLOUDY    75  70  83 N12       29.69R
ISLAND LAKE    PTSUNNY   70  64  83 SE7       29.80R
PILOT MOUND      N/A     88  68  51 SE18G26     N/A  HX  91
THE PAS        MOSUNNY   75  54  46 NW16      29.74S
THOMPSON       PTSUNNY   79  64  61 SW7       29.69R
WINNIPEG       MOSUNNY   88  73  62 SE21G29   29.70F HX  96
LYNN LAKE      PTSUNNY   73  57  56 SW15G26   29.65R
CHURCHILL      PTSUNNY   61  54  77 E14       29.78R
GILLAM         CLOUDY    75  63  64 SE5       29.70F
$$
                ***SASKATCHEWAN***

CITY           SKY/WX    TMP DP  RH WIND       PRES   REMARKS
ESTEVAN        CLOUDY    84  63  48 NW15      29.71F
KINDERSLEY     CLOUDY    54  43  66 NW6       29.96
LLOYDMINSTER   PTSUNNY   61  41  48 NW12G18   29.93R
PRINCE ALBERT  CLOUDY    59  50  72 W12       29.89F
REGINA         PTSUNNY   70  45  40 N18G26    29.82F


USA.gov is the U.S. government's official web portal to all federal, state and local government web resources and services.